TimeCDT,TemperatureF,Dew PointF,Humidity,Sea Level PressureIn,VisibilityMPH,Wind Direction,Wind SpeedMPH,Gust SpeedMPH,PrecipitationIn,Events,Conditions,WindDirDegrees,DateUTC
12:56 AM,79.0,73.0,82,29.69,-9999.0,SW,5.8,-,N/A,,Unknown,220,2013-08-21 05:56:00
1:56 AM,81.0,73.0,77,29.69,-9999.0,WSW,12.7,21.9,N/A,,Unknown,250,2013-08-21 06:56:00
2:56 AM,80.1,73.0,79,29.69,-9999.0,WSW,10.4,19.6,N/A,,Unknown,250,2013-08-21 07:56:00
3:56 AM,80.1,73.0,79,29.71,-9999.0,WNW,9.2,-,N/A,,Unknown,300,2013-08-21 08:56:00
4:56 AM,75.0,73.0,94,29.73,-9999.0,NE,4.6,-,N/A,,Unknown,40,2013-08-21 09:56:00
5:56 AM,73.0,72.0,96,29.75,-9999.0,North,9.2,-,N/A,,Unknown,350,2013-08-21 10:56:00
6:56 AM,70.0,66.9,90,29.79,-9999.0,North,9.2,-,N/A,,Unknown,10,2013-08-21 11:56:00
7:56 AM,66.0,60.1,81,29.85,-9999.0,North,11.5,17.3,N/A,,Unknown,350,2013-08-21 12:56:00
8:56 AM,69.1,59.0,70,29.87,-9999.0,North,10.4,-,N/A,,Unknown,10,2013-08-21 13:56:00
9:56 AM,72.0,60.1,66,29.89,-9999.0,North,8.1,-,N/A,,Unknown,10,2013-08-21 14:56:00
10:56 AM,77.0,61.0,58,29.88,-9999.0,North,6.9,-,N/A,,Unknown,360,2013-08-21 15:56:00
11:56 AM,79.0,62.1,56,29.89,-9999.0,NNE,5.8,-,N/A,,Unknown,30,2013-08-21 16:56:00
12:56 PM,81.0,64.0,56,29.90,-9999.0,NE,8.1,-,N/A,,Unknown,40,2013-08-21 17:56:00
1:56 PM,82.9,64.0,53,29.91,-9999.0,NNE,11.5,-,N/A,,Unknown,20,2013-08-21 18:56:00
2:56 PM,82.9,64.0,53,29.92,-9999.0,NNE,9.2,-,N/A,,Unknown,30,2013-08-21 19:56:00
3:56 PM,84.0,64.0,51,29.91,-9999.0,NE,8.1,-,N/A,,Unknown,50,2013-08-21 20:56:00
4:56 PM,84.0,63.0,49,29.92,-9999.0,NE,10.4,-,N/A,,Unknown,50,2013-08-21 21:56:00
5:56 PM,82.9,61.0,47,29.92,-9999.0,NNE,8.1,-,N/A,,Unknown,30,2013-08-21 22:56:00
6:56 PM,79.0,60.1,52,29.94,-9999.0,North,9.2,-,N/A,,Unknown,10,2013-08-21 23:56:00
7:56 PM,73.9,60.1,62,29.97,-9999.0,North,6.9,-,N/A,,Unknown,360,2013-08-22 00:56:00
8:56 PM,69.1,60.1,73,29.99,-9999.0,NNW,3.5,-,N/A,,Unknown,330,2013-08-22 01:56:00
9:56 PM,66.0,60.1,81,29.99,-9999.0,North,6.9,-,N/A,,Unknown,350,2013-08-22 02:56:00
10:56 PM,63.0,57.9,84,30.00,-9999.0,NNW,4.6,-,N/A,,Unknown,330,2013-08-22 03:56:00
11:56 PM,61.0,57.0,87,30.01,-9999.0,NNW,5.8,-,N/A,,Unknown,340,2013-08-22 04:56:00